When you browse on this site, cookies collect data to enhance your experience and personalize the content and advertising you see.
Visit our Privacy Policy to learn more. By continuing to use the site, you agree to this use of cookies and data.
  • In Hungary
  • List of Countries
  • For 7 days
  • Water Temperature
  • Satellite Maps
  • Weather Map
  • News
  • Weather Widgets
  • user-avatar
    Login

    Hourly Weather Voula

    Today, 18 December, Tuesday

    Time Temperature Precipitation Wind Pressure Humidity
    00:00 +12°C° 0.7 mm 4 mps 755 mmHg 80%
    01:00 +12°C° 0.7 mm 4 mps 755 mmHg 83%
    02:00 +12°C° 0 mm 4 mps 754 mmHg 87%
    03:00 +11°C° 1 mm 4 mps 754 mmHg 87%
    04:00 +11°C° 1 mm 4 mps 754 mmHg 87%
    05:00 +11°C° 1 mm 4 mps 754 mmHg 87%
    06:00 +11°C° 0.7 mm 4 mps 753 mmHg 87%
    07:00 +11°C° 0.7 mm 4 mps 753 mmHg 86%
    08:00 +11°C° 0 mm 3 mps 753 mmHg 86%
    09:00 +11°C° 0.6 mm 4 mps 753 mmHg 85%
    10:00 +10°C° 0.6 mm 5 mps 753 mmHg 83%
    11:00 +10°C° 0.6 mm 5 mps 753 mmHg 82%
    12:00 +10°C° 0.4 mm 6 mps 754 mmHg 80%
    13:00 +10°C° 0.4 mm 6 mps 754 mmHg 78%
    14:00 +11°C° 0 mm 6 mps 754 mmHg 78%
    15:00 +11°C° 0.4 mm 6 mps 754 mmHg 79%
    16:00 +10°C° 0.4 mm 7 mps 754 mmHg 81%
    17:00 +10°C° 0.4 mm 7 mps 755 mmHg 82%
    18:00 +10°C° 0.4 mm 8 mps 755 mmHg 82%
    19:00 +8°C° 0.4 mm 9 mps 756 mmHg 82%
    20:00 +8°C° 0.4 mm 10 mps 756 mmHg 81%
    21:00 +8°C° 0.1 mm 9 mps 757 mmHg 81%
    22:00 +8°C° 0.1 mm 9 mps 757 mmHg 80%
    23:00 +7°C° 0.1 mm 9 mps 758 mmHg 80%

    Tomorrow, 19 December, Wednesday

    Time Temperature Precipitation Wind Pressure Humidity
    00:00 +7°C° 0.2 mm 9 mps 758 mmHg 80%
    01:00 +7°C° 0.2 mm 9 mps 758 mmHg 80%
    02:00 +7°C° 0.2 mm 8 mps 759 mmHg 80%
    03:00 +7°C° 0.1 mm 8 mps 759 mmHg 80%
    04:00 +7°C° 0.1 mm 8 mps 759 mmHg 80%
    05:00 +8°C° 0.1 mm 7 mps 759 mmHg 80%
    06:00 +8°C° 0.1 mm 7 mps 759 mmHg 80%
    07:00 +8°C° 0.1 mm 7 mps 760 mmHg 79%
    08:00 +8°C° 0.1 mm 7 mps 760 mmHg 79%
    09:00 +8°C° 0.1 mm 7 mps 761 mmHg 78%
    10:00 +8°C° 0.1 mm 7 mps 761 mmHg 76%
    11:00 +9°C° 0.1 mm 7 mps 762 mmHg 74%
    12:00 +9°C° 0 mm 7 mps 762 mmHg 73%
    13:00 +9°C° 0 mm 7 mps 762 mmHg 73%
    14:00 +9°C° 0 mm 7 mps 762 mmHg 72%
    15:00 +9°C° 0 mm 6 mps 762 mmHg 73%
    16:00 +8°C° 0 mm 6 mps 762 mmHg 74%
    17:00 +8°C° 0 mm 6 mps 762 mmHg 75%
    18:00 +8°C° 0 mm 6 mps 763 mmHg 76%
    19:00 +8°C° 0 mm 5 mps 763 mmHg 77%
    20:00 +8°C° 0 mm 5 mps 763 mmHg 77%
    21:00 +7°C° 0 mm 5 mps 764 mmHg 78%
    22:00 +7°C° 0 mm 5 mps 764 mmHg 79%
    23:00 +7°C° 0 mm 4 mps 764 mmHg 80%

    Day after tomorrow, 20 December, Thursday

    Time Temperature Precipitation Wind Pressure Humidity
    00:00 +7°C° 0 mm 4 mps 764 mmHg 80%
    01:00 +7°C° 0 mm 4 mps 764 mmHg 80%
    02:00 +7°C° 0 mm 4 mps 765 mmHg 81%
    03:00 +7°C° 0 mm 4 mps 764 mmHg 81%
    04:00 +8°C° 0 mm 3 mps 764 mmHg 81%
    05:00 +8°C° 0 mm 3 mps 764 mmHg 81%
    06:00 +8°C° 0 mm 3 mps 765 mmHg 81%
    07:00 +8°C° 0 mm 3 mps 765 mmHg 81%
    08:00 +8°C° 0 mm 3 mps 765 mmHg 81%
    09:00 +8°C° 0 mm 3 mps 765 mmHg 77%
    10:00 +9°C° 0 mm 3 mps 766 mmHg 73%
    11:00 +10°C° 0 mm 3 mps 766 mmHg 69%
    12:00 +10°C° 0 mm 2 mps 765 mmHg 67%
    13:00 +12°C° 0 mm 2 mps 765 mmHg 65%
    14:00 +12°C° 0 mm 2 mps 765 mmHg 63%
    15:00 +12°C° 0 mm 2 mps 765 mmHg 65%
    16:00 +12°C° 0 mm 2 mps 765 mmHg 68%
    17:00 +10°C° 0 mm 2 mps 765 mmHg 70%
    18:00 +10°C° 0 mm 2 mps 765 mmHg 72%
    19:00 +9°C° 0 mm 2 mps 765 mmHg 74%
    20:00 +9°C° 0 mm 2 mps 765 mmHg 76%
    21:00 +9°C° 0 mm 2 mps 765 mmHg 78%
    22:00 +10°C° 0 mm 1 mps 765 mmHg 79%
    23:00 +10°C° 0 mm 1 mps 766 mmHg 80%

    21 December, Friday

    Time Temperature Precipitation Wind Pressure Humidity
    00:00 +9°C° 0 mm 1 mps 765 mmHg 81%
    01:00 +9°C° 0 mm 1 mps 765 mmHg 81%
    02:00 +9°C° 0 mm 1 mps 765 mmHg 82%
    03:00 +9°C° 0 mm 1 mps 765 mmHg 82%
    04:00 +9°C° 0 mm 1 mps 765 mmHg 83%
    05:00 +9°C° 0 mm 1 mps 765 mmHg 83%
    06:00 +9°C° 0 mm 1 mps 765 mmHg 83%
    07:00 +9°C° 0 mm 1 mps 765 mmHg 83%
    08:00 +9°C° 0 mm 1 mps 766 mmHg 83%
    09:00 +10°C° 0 mm 1 mps 766 mmHg 79%
    10:00 +11°C° 0 mm 1 mps 766 mmHg 74%
    11:00 +11°C° 0 mm 0 mps 766 mmHg 69%
    12:00 +12°C° 0 mm 0 mps 766 mmHg 67%
    13:00 +12°C° 0 mm 0 mps 765 mmHg 64%
    14:00 +13°C° 0 mm 0 mps 765 mmHg 62%
    15:00 +14°C° 0 mm 1 mps 765 mmHg 65%
    16:00 +13°C° 0 mm 1 mps 765 mmHg 69%
    17:00 +13°C° 0 mm 1 mps 765 mmHg 72%
    18:00 +12°C° 0 mm 1 mps 765 mmHg 74%
    19:00 +12°C° 0 mm 1 mps 765 mmHg 77%
    20:00 +12°C° 0 mm 1 mps 765 mmHg 79%
    21:00 +11°C° 0 mm 1 mps 765 mmHg 81%
    22:00 +11°C° 0 mm 1 mps 765 mmHg 82%
    23:00 +11°C° 0 mm 1 mps 765 mmHg 83%

    22 December, Saturday

    Time Temperature Precipitation Wind Pressure Humidity
    00:00 +11°C° 0 mm 1 mps 765 mmHg 84%
    01:00 +10°C° 0 mm 0 mps 765 mmHg 85%
    02:00 +10°C° 0 mm 0 mps 765 mmHg 86%
    03:00 +9°C° 0 mm 0 mps 764 mmHg 86%
    04:00 +9°C° 0 mm 0 mps 764 mmHg 86%
    05:00 +9°C° 0 mm 0 mps 764 mmHg 87%
    06:00 +10°C° 0 mm 1 mps 764 mmHg 87%
    07:00 +10°C° 0 mm 1 mps 764 mmHg 87%
    08:00 +10°C° 0 mm 1 mps 764 mmHg 87%
    09:00 +12°C° 0 mm 1 mps 764 mmHg 82%
    10:00 +13°C° 0 mm 1 mps 764 mmHg 77%
    11:00 +15°C° 0 mm 2 mps 765 mmHg 73%
    12:00 +15°C° 0 mm 2 mps 764 mmHg 71%
    13:00 +16°C° 0 mm 2 mps 764 mmHg 69%
    14:00 +16°C° 0 mm 2 mps 763 mmHg 67%
    15:00 +16°C° 0 mm 2 mps 763 mmHg 71%
    16:00 +15°C° 0 mm 2 mps 763 mmHg 74%
    17:00 +15°C° 0 mm 2 mps 762 mmHg 77%
    18:00 +14°C° 0 mm 2 mps 762 mmHg 80%
    19:00 +14°C° 0 mm 1 mps 763 mmHg 83%
    20:00 +13°C° 0 mm 1 mps 763 mmHg 85%
    21:00 +13°C° 0 mm 1 mps 762 mmHg 86%
    22:00 +13°C° 0 mm 1 mps 762 mmHg 87%
    23:00 +12°C° 0 mm 1 mps 762 mmHg 88%

    23 December, Sunday

    Time Temperature Precipitation Wind Pressure Humidity
    00:00 +12°C° 0 mm 1 mps 762 mmHg 88%
    01:00 +12°C° 0 mm 1 mps 762 mmHg 88%
    02:00 +12°C° 0 mm 1 mps 762 mmHg 88%
    03:00 +12°C° 0 mm 1 mps 762 mmHg 87%
    04:00 +11°C° 0 mm 1 mps 761 mmHg 86%
    05:00 +11°C° 0 mm 1 mps 761 mmHg 85%
    06:00 +11°C° 0 mm 1 mps 761 mmHg 85%
    07:00 +11°C° 0 mm 1 mps 762 mmHg 84%
    08:00 +11°C° 0 mm 1 mps 762 mmHg 83%
    09:00 +13°C° 0 mm 1 mps 762 mmHg 77%
    10:00 +14°C° 0 mm 1 mps 763 mmHg 71%
    11:00 +15°C° 0 mm 1 mps 763 mmHg 65%
    12:00 +16°C° 0 mm 1 mps 762 mmHg 63%
    13:00 +16°C° 0 mm 1 mps 762 mmHg 61%
    14:00 +16°C° 0 mm 0 mps 762 mmHg 59%
    15:00 +16°C° 0 mm 1 mps 762 mmHg 63%
    16:00 +16°C° 0 mm 1 mps 762 mmHg 67%
    17:00 +15°C° 0 mm 1 mps 762 mmHg 70%
    18:00 +14°C° 0 mm 1 mps 762 mmHg 74%
    19:00 +14°C° 0 mm 1 mps 763 mmHg 77%
    20:00 +13°C° 0 mm 1 mps 763 mmHg 80%
    21:00 +13°C° 0 mm 1 mps 763 mmHg 82%
    22:00 +12°C° 0 mm 0 mps 763 mmHg 83%
    23:00 +11°C° 0 mm 0 mps 763 mmHg 84%
    Show more